North Las Vegas, NV

7:08 AM PST on February 09, 2016 (GMT -0800)
North Las Vegas

Weather History for KVGT - December, 2014

Change the Weather History Date:

Friday, December 5, 2014

  Actual Average Record
Temperature  
Mean Temperature 56 °F 48 °F  
Max Temperature 61 °F 58 °F 67 °F (2007)
Min Temperature 52 °F 39 °F 28 °F (2013)
Degree Days  
Heating Degree Days 8 16  
Month to date heating degree days 78  
Since 1 July heating degree days 391  
Cooling Degree Days 0 0  
Month to date cooling degree days 0  
Year to date cooling degree days 3294  
Growing Degree Days 6 (Base 50)    
Moisture  
Dew Point 49 °F    
Average Humidity 79    
Maximum Humidity 89    
Minimum Humidity 60    
Precipitation  
Precipitation 0.00 in 0.01 in 0.01 in (2010)
Month to date precipitation 0.07  
Year to date precipitation 4.87  
Sea Level Pressure  
Sea Level Pressure 30.19 in    
Wind  
Wind Speed 1 mph (WNW)    
Max Wind Speed 6 mph    
Max Gust Speed -    
Visibility 9 miles    
Events      
T = Trace of Precipitation, MM = Missing Value Source: NWS Daily Summary

Daily Weather History Graph

Daily Weather History Graph

Search for Another Location

Airport or City:

Trip Planner

Search our weather history database for the weather conditions in past years. The results will help you decide how hot, cold, wet, or windy it might be!

Date:

Astronomy

Dec. 05, 2014 Rise Set
Actual Time 6:37 AM PST 4:25 PM PST
Civil Twilight 6:08 AM PST 4:54 PM PST
Nautical Twilight 5:36 AM PST 5:26 PM PST
Astronomical Twilight 5:05 AM PST 5:57 PM PST
Moon 4:14 PM PST (12/5) 5:36 AM PST (12/5)
Length of Visible Light 10h 45m
Length of Day
9h 48m
Waxing Gibbous, 99% of the Moon is Illuminated
Dec 5
Waxing Gibbous
Dec 6
Full
Dec 14
Last Quarter
Dec 21
New
Dec 28
First Quarter

Hourly Weather History & Observations

Time (PST) Temp. Dew Point Humidity Pressure Visibility Wind Dir Wind Speed Gust Speed Precip Events Conditions
12:23 AM 52.0 °F 48.0 °F 86% 30.11 in 9.0 mi Calm Calm - N/A   Overcast
12:53 AM 52.0 °F 48.0 °F 86% 30.15 in 9.0 mi NNW 3.5 mph - N/A   Overcast
1:34 AM 52.0 °F 48.0 °F 86% 30.12 in 10.0 mi NW 3.5 mph - N/A   Overcast
1:53 AM 52.0 °F 48.0 °F 86% 30.17 in 10.0 mi Calm Calm - N/A   Overcast
2:15 AM 52.0 °F 48.0 °F 86% 30.12 in 10.0 mi Calm Calm - N/A   Overcast
2:27 AM 53.1 °F 48.9 °F 86% 30.13 in 10.0 mi Calm Calm - N/A   Overcast
2:53 AM 53.1 °F 48.9 °F 86% 30.17 in 10.0 mi Calm Calm - N/A   Overcast
3:53 AM 52.0 °F 48.9 °F 89% 30.17 in 10.0 mi Calm Calm - N/A   Overcast
4:31 AM 53.1 °F 48.0 °F 83% 30.14 in 10.0 mi Calm Calm - N/A   Overcast
4:45 AM 53.1 °F 48.0 °F 83% 30.14 in 10.0 mi Calm Calm - N/A   Overcast
4:53 AM 53.1 °F 48.9 °F 86% 30.19 in 10.0 mi Calm Calm - N/A   Overcast
5:11 AM 53.1 °F 48.9 °F 86% 30.15 in 10.0 mi Calm Calm - N/A   Overcast
5:53 AM 52.0 °F 48.9 °F 89% 30.22 in 9.0 mi Calm Calm - N/A   Overcast
6:30 AM 53.1 °F 48.9 °F 86% 30.18 in 9.0 mi Calm Calm - N/A   Overcast
6:53 AM 52.0 °F 48.9 °F 89% 30.24 in 8.0 mi NE 3.5 mph - N/A   Overcast
7:29 AM 52.0 °F 48.9 °F 89% 30.19 in 7.0 mi Calm Calm - N/A   Overcast
7:53 AM 53.1 °F 48.9 °F 86% 30.25 in 8.0 mi Calm Calm - N/A   Overcast
8:03 AM 54.0 °F 48.9 °F 83% 30.20 in 8.0 mi Calm Calm - N/A   Overcast
8:53 AM 55.0 °F 48.9 °F 80% 30.27 in 8.0 mi Calm Calm - N/A   Overcast
9:10 AM 55.9 °F 48.9 °F 77% 30.23 in 8.0 mi Calm Calm - N/A   Overcast
9:53 AM 55.9 °F 50.0 °F 80% 30.28 in 7.0 mi Calm Calm - N/A   Overcast
10:37 AM 57.9 °F 51.1 °F 78% 30.22 in 8.0 mi Calm Calm - N/A   Overcast
10:53 AM 59.0 °F 51.1 °F 75% 30.26 in 9.0 mi Calm Calm - N/A   Scattered Clouds
11:32 AM 60.1 °F 51.1 °F 72% 30.19 in 9.0 mi Calm Calm - N/A   Mostly Cloudy
11:53 AM 60.1 °F 50.0 °F 69% 30.23 in 10.0 mi ESE 4.6 mph - N/A   Mostly Cloudy
12:03 PM 59.0 °F 50.0 °F 72% 30.18 in 10.0 mi SE 3.5 mph - N/A   Scattered Clouds
12:53 PM 60.1 °F 48.9 °F 67% 30.21 in 10.0 mi Calm Calm - N/A   Clear
1:53 PM 60.1 °F 48.0 °F 64% 30.20 in 10.0 mi SE 3.5 mph - N/A   Partly Cloudy
2:53 PM 61.0 °F 46.9 °F 60% 30.19 in 10.0 mi ESE 3.5 mph - N/A   Clear
3:53 PM 60.1 °F 46.9 °F 62% 30.19 in 10.0 mi Calm Calm - N/A   Clear
4:53 PM 60.1 °F 46.9 °F 62% 30.19 in 10.0 mi Calm Calm - N/A   Clear
5:53 PM 57.9 °F 48.0 °F 70% 30.20 in 10.0 mi WSW 3.5 mph - N/A   Scattered Clouds
6:53 PM 57.9 °F 48.9 °F 72% 30.22 in 10.0 mi WSW 4.6 mph - N/A   Overcast
7:53 PM 57.0 °F 48.9 °F 74% 30.22 in 10.0 mi NW 3.5 mph - N/A   Mostly Cloudy
8:53 PM 57.0 °F 48.9 °F 74% 30.22 in 10.0 mi Calm Calm - N/A   Mostly Cloudy
9:53 PM 55.9 °F 48.9 °F 77% 30.23 in 10.0 mi WNW 3.5 mph - N/A   Clear
10:53 PM 55.0 °F 48.9 °F 80% 30.22 in 8.0 mi WNW 5.8 mph - N/A   Mostly Cloudy
11:53 PM 55.0 °F 48.9 °F 80% 30.20 in 9.0 mi WNW 4.6 mph - N/A   Clear